TITAN 3C TRANSTAGE DEB, 43456

Orbit data source: Space-Track

TITAN 3C TRANSTAGE DEB, 43456 is space debris in GEO originally from a launch on Sun, 09 Feb 1969 UTC launched from the Air Force Eastern Test Range (AFETR). Debris objects in space refer to the collection of defunct objects orbiting the Earth. Examples of debris include non-operational satellites, rocket bodies, and fragments generated from explosions, collisions, or faulty payload assembly.

Loading next visibility...
Identifier
43456, 1969-013P
Orbit
GEO
Country
Flag of USUS
Related business
Manufacturer
Martin Marietta
Mission
Spacecraft
Bus & Motor
Unknown
Mass
Unknown
Launch date (UTC)
1969-02-09 (57 years ago)
Launch vehicle
Unknown
Launch site
Air Force Eastern Test Range (AFETR)
Object type
Payload
Rocket body
Debris
Shape & HBR
Unknown shape, 1.1 m
Radar Cross Section
RCS unknown

Expand to show TLE details & history
Last TLE update: 1 day ago

TLE from 1 day ago
0 TITAN 3C TRANSTAGE DEB
1 43456U 69013P   26124.03523588  .00000012  00000-0  00000-0 0  9993
2 43456   1.8761  50.2028 0954446  33.1134 332.0465  1.02706695  6275
Epoch: 2026-05-04T00:50Z
TLE epoch observation values (Epoch: 2026-05-04T00:50:44.380Z)
Latitude
-0°
Longitude
175.07185°
Altitude
31,698.728 km
Speed
3.366 km/s
True Right ascension
03h 18m 44s
True Declination
0° 00' 00"
Sunlit
Object was in daylight at epoch
Visualization orbit readout
Latitude
Unknown
Longitude
Unknown
Altitude
Unknown
Speed
Unknown
Apparent Right ascension
Unknown
Apparent Declination
Unknown
Sunlit
N/A
Visualization observer readout
Local Sidereal Time
20:05:26
Azimuth
Unknown
Elevation
Unknown
Doppler factor
Unknown
Orbital elements
Apogee altitude
39,079.264 km
Perigee altitude
31,157.981 km
Semi-major axis
41,496.759 km
Eccentricity
0.09544
Inclination
1.8761°
RAAN
50.2028°
Arg. of periapsis
33.1134°
True anomaly
326.32859°
Mean anomaly
332.0465°
Eccentric anomaly
329.2505°
Mean motion
0.25676 °/min
Orbital period
1,402.11 mins
BSTAR
0
Loading maneuver chart data...
Computing Atmospheric mass density...

Documentation

Showing up to 5 results
|